TimeCDT,TemperatureF,Dew PointF,Humidity,Sea Level PressureIn,VisibilityMPH,Wind Direction,Wind SpeedMPH,Gust SpeedMPH,PrecipitationIn,Events,Conditions,WindDirDegrees,DateUTC
12:13 AM,69.8,64.4,83,30.05,10.0,SSE,3.5,-,N/A,,Scattered Clouds,150,2013-07-14 05:13:00
12:33 AM,69.8,64.4,83,30.05,10.0,South,9.2,-,N/A,,Mostly Cloudy,170,2013-07-14 05:33:00
12:53 AM,69.8,64.4,83,30.05,10.0,South,5.8,-,N/A,,Scattered Clouds,170,2013-07-14 05:53:00
1:13 AM,69.8,64.4,83,30.05,4.0,SSE,3.5,-,N/A,,Clear,160,2013-07-14 06:13:00
1:33 AM,68.0,64.4,88,30.05,5.0,SSE,5.8,-,N/A,,Clear,150,2013-07-14 06:33:00
1:53 AM,68.0,64.4,88,30.04,10.0,SSE,3.5,-,N/A,,Clear,150,2013-07-14 06:53:00
2:13 AM,68.0,64.4,88,30.04,10.0,SSE,3.5,-,N/A,,Clear,160,2013-07-14 07:13:00
2:33 AM,68.0,64.4,88,30.04,10.0,SSE,3.5,-,N/A,,Clear,160,2013-07-14 07:33:00
2:53 AM,68.0,64.4,88,30.04,10.0,SSE,4.6,-,N/A,,Scattered Clouds,160,2013-07-14 07:53:00
3:13 AM,68.0,62.6,83,30.04,10.0,South,5.8,-,N/A,,Scattered Clouds,170,2013-07-14 08:13:00
3:33 AM,68.0,62.6,83,30.05,10.0,South,5.8,-,N/A,,Mostly Cloudy,170,2013-07-14 08:33:00
3:53 AM,68.0,62.6,83,30.05,10.0,South,5.8,-,N/A,,Mostly Cloudy,170,2013-07-14 08:53:00
4:13 AM,68.0,62.6,83,30.04,10.0,SSE,6.9,-,N/A,,Mostly Cloudy,160,2013-07-14 09:13:00
4:33 AM,68.0,60.8,78,30.04,10.0,SSE,4.6,-,N/A,,Clear,160,2013-07-14 09:33:00
4:53 AM,68.0,60.8,78,30.04,10.0,SSE,4.6,-,N/A,,Scattered Clouds,150,2013-07-14 09:53:00
5:13 AM,66.2,60.8,83,30.04,10.0,SSE,4.6,-,N/A,,Mostly Cloudy,150,2013-07-14 10:13:00
5:33 AM,66.2,60.8,83,30.04,10.0,SE,5.8,-,N/A,,Overcast,140,2013-07-14 10:33:00
5:53 AM,66.2,60.8,83,30.04,10.0,Calm,Calm,-,N/A,,Scattered Clouds,0,2013-07-14 10:53:00
6:13 AM,66.2,60.8,83,30.05,10.0,SSE,3.5,-,N/A,,Clear,150,2013-07-14 11:13:00
6:33 AM,66.2,60.8,83,30.04,10.0,SSE,6.9,-,N/A,,Scattered Clouds,150,2013-07-14 11:33:00
6:53 AM,66.2,60.8,83,30.05,10.0,SSE,4.6,-,N/A,,Mostly Cloudy,160,2013-07-14 11:53:00
7:13 AM,66.2,60.8,83,30.05,10.0,SSE,4.6,-,N/A,,Mostly Cloudy,150,2013-07-14 12:13:00
7:33 AM,66.2,60.8,83,30.06,10.0,South,5.8,-,N/A,,Mostly Cloudy,170,2013-07-14 12:33:00
7:53 AM,66.2,59.0,78,30.06,10.0,South,5.8,-,N/A,,Mostly Cloudy,180,2013-07-14 12:53:00
8:13 AM,68.0,59.0,73,30.06,10.0,South,5.8,-,N/A,,Scattered Clouds,170,2013-07-14 13:13:00
8:33 AM,68.0,59.0,73,30.07,10.0,South,3.5,-,N/A,,Scattered Clouds,180,2013-07-14 13:33:00
8:53 AM,68.0,59.0,73,30.07,10.0,South,4.6,-,N/A,,Mostly Cloudy,190,2013-07-14 13:53:00
9:13 AM,68.0,60.8,78,30.08,10.0,South,4.6,-,N/A,,Overcast,180,2013-07-14 14:13:00
9:33 AM,68.0,59.0,73,30.09,10.0,South,4.6,-,N/A,,Mostly Cloudy,180,2013-07-14 14:33:00
9:53 AM,68.0,60.8,78,30.10,10.0,South,3.5,-,N/A,,Mostly Cloudy,180,2013-07-14 14:53:00
10:13 AM,68.0,60.8,78,30.10,10.0,South,8.1,-,N/A,,Mostly Cloudy,170,2013-07-14 15:13:00
10:33 AM,69.8,60.8,73,30.10,10.0,South,5.8,-,N/A,,Scattered Clouds,190,2013-07-14 15:33:00
10:53 AM,69.8,60.8,73,30.10,10.0,South,3.5,-,N/A,,Mostly Cloudy,190,2013-07-14 15:53:00
11:13 AM,68.0,60.8,78,30.10,10.0,SSW,4.6,-,N/A,,Mostly Cloudy,200,2013-07-14 16:13:00
11:33 AM,68.0,60.8,78,30.11,10.0,SW,3.5,-,N/A,,Scattered Clouds,220,2013-07-14 16:33:00
11:53 AM,68.0,60.8,78,30.12,10.0,Calm,Calm,-,N/A,,Mostly Cloudy,0,2013-07-14 16:53:00
12:13 PM,69.8,60.8,73,30.13,10.0,South,4.6,-,N/A,,Scattered Clouds,180,2013-07-14 17:13:00
12:33 PM,69.8,60.8,73,30.13,10.0,South,4.6,-,N/A,,Scattered Clouds,190,2013-07-14 17:33:00
12:53 PM,69.8,60.8,73,30.12,10.0,SSW,3.5,-,N/A,,Scattered Clouds,210,2013-07-14 17:53:00
1:13 PM,69.8,62.6,78,30.11,10.0,Calm,Calm,-,N/A,,Drizzle,0,2013-07-14 18:13:00
1:33 PM,69.8,62.6,78,30.11,10.0,Calm,Calm,-,N/A,,Light Drizzle,0,2013-07-14 18:33:00
1:53 PM,69.8,62.6,78,30.11,10.0,Calm,Calm,-,N/A,,Light Drizzle,0,2013-07-14 18:53:00
2:13 PM,69.8,62.6,78,30.12,10.0,South,3.5,-,N/A,,Clear,180,2013-07-14 19:13:00
2:33 PM,69.8,62.6,78,30.12,10.0,SSE,3.5,-,N/A,,Clear,160,2013-07-14 19:33:00
2:53 PM,69.8,62.6,78,30.12,10.0,South,3.5,-,N/A,,Clear,180,2013-07-14 19:53:00
3:13 PM,69.8,62.6,78,30.13,10.0,South,5.8,-,N/A,,Clear,170,2013-07-14 20:13:00
3:33 PM,69.8,64.4,83,30.14,10.0,South,3.5,-,N/A,,Drizzle,170,2013-07-14 20:33:00
3:53 PM,66.2,62.6,88,30.15,10.0,South,6.9,-,0.02,Rain,Light Rain,170,2013-07-14 20:53:00
4:13 PM,66.2,62.6,88,30.16,10.0,SSW,3.5,-,0.01,Rain,Rain,200,2013-07-14 21:13:00
4:33 PM,66.2,64.4,94,30.15,7.0,Calm,Calm,-,0.01,,Drizzle,0,2013-07-14 21:33:00
4:53 PM,66.2,64.4,94,30.15,10.0,South,3.5,-,0.02,Rain,Light Rain,180,2013-07-14 21:53:00
5:13 PM,66.2,64.4,94,30.16,7.0,Calm,Calm,-,N/A,Rain,Light Rain,0,2013-07-14 22:13:00
5:33 PM,66.2,64.4,94,30.15,7.0,South,4.6,-,0.01,Rain,Light Rain,180,2013-07-14 22:33:00
5:53 PM,66.2,64.4,94,30.15,10.0,South,3.5,-,0.02,,Drizzle,180,2013-07-14 22:53:00
6:13 PM,66.2,64.4,94,30.16,7.0,Calm,Calm,-,N/A,Rain,Light Rain,0,2013-07-14 23:13:00
6:33 PM,66.2,64.4,94,30.16,7.0,Calm,Calm,-,0.01,Rain,Light Rain,0,2013-07-14 23:33:00
6:53 PM,66.2,64.4,94,30.15,7.0,SE,3.5,-,0.02,Rain,Rain,140,2013-07-14 23:53:00
7:13 PM,66.2,64.4,94,30.15,10.0,SSE,3.5,-,N/A,,Drizzle,160,2013-07-15 00:13:00
7:33 PM,66.2,64.4,94,30.16,10.0,SSE,3.5,-,N/A,,Clear,160,2013-07-15 00:33:00
7:53 PM,66.2,64.4,94,30.17,10.0,South,4.6,-,N/A,,Scattered Clouds,180,2013-07-15 00:53:00
8:13 PM,66.2,64.4,94,30.18,10.0,Calm,Calm,-,N/A,,Scattered Clouds,0,2013-07-15 01:13:00
8:33 PM,66.2,64.4,94,30.18,10.0,Calm,Calm,-,N/A,,Clear,0,2013-07-15 01:33:00
8:53 PM,66.2,64.4,94,30.18,10.0,Calm,Calm,-,N/A,,Clear,0,2013-07-15 01:53:00
9:13 PM,66.2,64.4,94,30.18,5.0,Calm,Calm,-,N/A,,Clear,0,2013-07-15 02:13:00
9:33 PM,66.2,62.6,88,30.18,7.0,SSE,3.5,-,N/A,,Scattered Clouds,150,2013-07-15 02:33:00
9:53 PM,66.2,64.4,94,30.19,10.0,Calm,Calm,-,N/A,,Scattered Clouds,0,2013-07-15 02:53:00
10:13 PM,66.2,64.4,94,30.19,10.0,Calm,Calm,-,N/A,,Mostly Cloudy,0,2013-07-15 03:13:00
10:33 PM,66.2,64.4,94,30.20,7.0,Calm,Calm,-,N/A,,Scattered Clouds,0,2013-07-15 03:33:00
10:53 PM,66.2,64.4,94,30.20,7.0,Calm,Calm,-,N/A,,Scattered Clouds,0,2013-07-15 03:53:00
11:13 PM,66.2,64.4,94,30.19,7.0,Calm,Calm,-,N/A,,Scattered Clouds,0,2013-07-15 04:13:00
11:33 PM,66.2,64.4,94,30.20,7.0,Calm,Calm,-,N/A,,Scattered Clouds,0,2013-07-15 04:33:00
11:53 PM,66.2,64.4,94,30.20,7.0,Calm,Calm,-,N/A,,Mostly Cloudy,0,2013-07-15 04:53:00